Погода в Камышине

Погода в Камышине : погода сейчас, прогноз погоды и архив. Всё, что Вы хотите узнать о погоде в Камышине!

Хотите узнать прогноз погоды в Камышине? Тогда Вам сюда: Погода в Камышине

Поиск расширенной информации на нашем сайте:

Полезная информация:

Другие новости

Новости СМИ2

Главная страница сайта

Новости сайта

03.07.2017

Напоминаем, что на нашем специализированном сайте Метеоцентр.Азия вы можете получить высокодетализированные автоматические прогнозы погоды по пунктам России, СНГ и мира в авиационном формате (включающие направление и скорость ветра, видимость, явления погоды, количество и форму облачности, нижнюю и верхнюю границу облачности).

Рекомендуем:

Погода в Камышине - сегодня

Время (UTC), дата Ветер
(°,м/с) 
Видим.   Явления Облачность Т
(°С)
Тd
(°С)
f(%) Тe
(°С)
Pmin
(гПа)
dP
(гПа)
Po
(мм)
O2
(г/м3)
Тmin Tmax R s Состояние
почвы
09 15.09.19 310 (СЗ) 20000 м  {ливн. осадки}  6/3 1000 м средняя 
[Sc|Ac trans]
+18.2 +5 42 +18  1017.5  -0.8  752  283           
12 15.09.19 310 (СЗ) 4{10}  20000 м  {ливн. осадки}  9/6 1000 м средняя, верхняя 
[Cu Sc|Ac trans|Ci sp]
+18.3 +1.5 32 +19  1017.1  -0.4  752  284           
15 15.09.19 300 (СЗ) 4{11}  20000 м    3/3 1000 м 
[Sc]
+15.7 -0.8 32 +16  1017.4  0.2  752  287    +18.7  0.8     
18 15.09.19 290 (З) 20000 м    ясно 
+13.3 -0.1 40 +13  1018.4  0.9  753  289           
21 15.09.19 260 (З) 20000 м    ясно 
+9.1 +1.4 59 +9  1018.4  -0.3  753  293           
00 16.09.19 230 (ЮЗ) 20000 м    3/0 верхняя 
[Ci fib]
+8.7 +1 58 +8  1017.8  -0.6  752  294           
03 16.09.19 240 (ЮЗ) 10 км    3/3 600 м 
[Sc]
+8.3 +1.6 63 +7  1016.7  -1.2  751  294  +7.9        сухая 
06 16.09.19 230 (ЮЗ) 7-10{10}  20000 м    9/0 верхняя 
[Ci sp]
+17.1 +0.4 32 +17  1014.8  -1.4  750  284           
09 16.09.19 240 (ЮЗ) 10-15{15}  20000 м    4/0 средняя, верхняя 
[Ac lent|Ci sp]
+21.6 -1 22 +22  1011.8  -2.6  748  279           
12 16.09.19 250 (З) 9-16{16}  20000 м    3/0 верхняя 
[Ci sp]
+23.4 -2.7 17 +23  1008.9  -2.8  746  277           
15 16.09.19 240 (ЮЗ) 6-10{16}  20000 м    3/0 средняя, верхняя 
[Ac lent|Ci sp]
+21.5 -2.5 20 +22  1007.6  -1.3  745  279    +23.4       
18 16.09.19 240 (ЮЗ) 4{10}  20000 м    8/0 средняя 
[Ac trans]
+17.1 -1.7 28 +17  1007.8  745  283           
21 16.09.19 260 (З) 5{12}  20000 м    9/0 средняя 
[Ac trans]
+17.4 -1.7 27 +17  1007.4  -0.5  745  282           
00 17.09.19 220 (ЮЗ) 20000 м    10/0 средняя 
[Ac As]
+15.5 -0.7 33 +16  1007  -0.4  744  284           
03 17.09.19 270 (З) 10 км  осадки на расстоянии  10/3 1000 м кучево-дожд., средняя 
[Cb calv|Ac As]
+14.5 +0.7 39 +15  1006.8  -0.3  744  285  +14.5        сухая 
06 17.09.19 230 (ЮЗ) 20000 м    10/0 средняя 
[Ac lent]
+16.5 +1.4 36 +17  1006.5  -0.2  744  282  +14.3         
09 17.09.19 260 (З) 10 км    10/0 средняя 
[Ac lent]
+18.3 +1.6 33 +19  1006  -0.4  744  281           
12 17.09.19 210 (ЮЗ) 10 км    9/0 средняя 
[Ac lent]
+19.9 +2.1 31 +21  1004.5  -1.3  743  279           
15 17.09.19 220 (ЮЗ) 10 км    10/0 средняя 
[Ac As]
+19.1 +6.9 45 +20  1003.9  -0.7  742  278    +21       
18 17.09.19 260 (З) 6{11}  10 км    10/0 средняя 
[Ac lent]
+16.9 +7.2 53 +17  1005.1  1.1  743  281           
21 17.09.19 270 (З) 7{10}  10 км    5/0 средняя 
[Ac trans]
+14.4 +6.6 59 +13  1005.2  743  283           
00 18.09.19 280 (З) 5{10}  10 км    ясно 
+11.8 +5.3 64 +11  1006.1  0.7  744  286           
03 18.09.19 270 (З) 10 км    1/0 средняя 
[Ac lent]
+9.1 +4.1 71 +9  1007.1  0.8  744  290  +8.8        сухая 
06 18.09.19 250 (З) 10 км    ясно 
+16.4 +4.3 45 +17  1007.2  0.5  745  282           
09 18.09.19 210 (ЮЗ) 7-10{12}  20000 м    4/0 средняя 
[Ac trans]
+20.6 -0.4 24 +21  1005.8  -1.2  744  279           
Время (UTC), дата Ветер
(°,м/с) 
Видим.   Явления Облачность Т
(°С)
Тd
(°С)
f(%) Тe
(°С)
Pmin
(гПа)
dP
(гПа)
Po
(мм)
O2
(г/м3)
Тmin Tmax R s Состояние
почвы

Для получения пояснительной информации подведите курсор к названию столбца.

ПОГОДА в Камышине - архив

Всё, что Вы хотите узнать о погоде в Камышине - удобно и подробно!

Выберите нужную дату (начиная с 1 января 2018* года) и нажмите кнопку "Найти".
Будут отображены архивные сводки погоды по пункту Камышин, начиная с указанной даты.


Отображать данные в формате CSV (для использования в таблицах Excel)


Внимание! Наш архив погоды предназначен исключительно для личного некоммерческого использования в познавательных целях. Если Вам необходимы официальные справки о состоянии погоды (для производственных, юридических, коммерческих и т.п. целей), обращайтесь в органы Росгидромета.

*Примечание: данная дата относится к архиву по метеостанциям СССР (Россия, СНГ, Балтия).
Архив по метеостанциям Зарубежной Европы и Азии (кроме Китая) хранится 10 дней, по другим регионам земного шара (Китай, Африка, Америка, Австралия, Океания) - 1 день.

Камышин - район местоположения метеостанции


Название, широта, долгота, высота метеостанции:
Камышин 50.1°ш. 45.4°д. 119 м над ур. моря [Российская Федерация]

Дополнительная информация

В oтличие oт бoльшинства пoгoдных сайтoв мы публикуем пoдрoбную метеoинфoрмацию в детальнoм прoфессиoнальнoм фoрмате.

Характеристики температуры и влажнoсти вoздуха измеряются на высoте 2 м в тени вдали oт зданий и деревьев.
Скoрoсть ветра измеряется на высoте 10 м (на урoвне рoста челoвека скoрoсть ветра ниже в 1.5-2 раза). Если метеoстанция нахoдится в гoрoде или в лесу, тo скoрoсть ветра занижена на 2-4 м/с пo сравнению с oткрытым местoм. Скoрoсть ветра над акватoриями крупных рек и oзёр, а также на вершинах хoлмoв на 2-5 м/с выше, чем в oбычных услoвиях.
Атмoсфернoе давление в разных тoчках местнoсти мoжет значительнo oтличаться oт давления на метеoстанции, в зависимoсти oт услoвий рельефа (при пoдъёме на 10 м давление пoнижается примернo на 1 мм рт.ст.).